Temp
64 54 49 56 61 63 63 60 59 64 70 64 62 64 68 72 69 69 70 71 72 74 78 78 79 80 76 72 73 74 74 73 69 68 72 72 73 73 78 80 80 79 78 80
58 51 63 68 68 66 64 59 58 63 69 65 61 61 67 70 69 69 69 70 70 71 73 78 77 76 73 72 72 71 72 72 72 68 67 71 72 72 74 75 82 81 74 79
54 61 72 68 65 64 61 57 58 57 65 65 61 57 61 68 69 72 73 72 71 71 71 73 75 72 70 69 69 71 71 71 70 71 69 67 68 71 71 72 75 75 75 73
59 68 68 66 64 65 55 66 66 63 56 48 59 46 55 62 65 71 73 73 71 72 74 73 69 68 69 69 71 69 69 69 72 70 68 67 64 65 73 74 72 73 72 68
59 63 62 60 65 68 59 68 63 62 54 46 52 44 50 62 62 66 67 75 74 72 70 70 69 70 71 71 68 68 68 68 69 70 68 66 65 64 67 72 71 73 71 68
61 70 67 65 71 70 70 62 58 54 48 42 49 48 50 57 63 65 71 72 76 73 70 69 70 71 69 69 68 67 67 66 68 68 68 67 65 65 65 68 69 72 75 72
58 60 66 70 62 66 62 50 38 35 36 38 54 51 52 61 67 70 67 67 68 68 66 66 67 66 68 68 67 68 66 65 66 66 66 66 66 66 65 65 68 68 71 73
48 47 62 69 59 53 55 50 41 31 32 38 51 41 50 64 68 68 70 67 69 68 67 66 67 68 68 68 67 67 66 65 65 65 64 64 64 64 65 64 65 67 65 70
45 49 65 66 67 63 54 47 53 41 41 36 42 51 60 62 63 66 69 69 66 65 64 66 68 66 67 66 66 66 66 66 65 65 63 63 62 62 62 64 66 67 67 71
51 42 57 62 63 63 57 60 41 39 31 28 40 45 46 53 57 61 62 64 65 64 65 64 64 66 66 64 65 65 65 64 65 65 64 64 63 63 62 62 62 65 66 66
51 45 46 54 50 48 49 46 48 46 39 32 28 37 55 53 57 57 60 62 64 63 65 66 66 65 64 64 65 64 63 64 63 63 63 62 63 63 62 60 61 62 63 65
51 44 37 45 55 59 55 49 47 35 36 38 37 38 60 56 56 57 60 62 64 64 63 65 66 66 65 63 64 65 64 64 65 64 63 61 63 62 60 60 60 61 61 62
47 39 31 37 46 51 46 47 46 43 41 36 34 37 58 59 58 59 59 62 64 63 63 62 62 62 64 63 63 63 63 63 63 64 61 60 59 58 59 59 59 59 61 63
52 41 36 29 38 43 41 46 50 42 33 36 37 40 50 55 55 54 57 57 55 60 62 60 59 59 61 63 64 65 63 63 62 62 60 59 58 58 57 58 59 58 60 61
45 34 40 43 47 48 47 47 48 43 43 35 43 45 50 56 56 54 54 59 60 61 63 62 60 59 59 59 58 60 59 60 59 58 57 57 57 58 58 58 58 58 57 60
48 34 40 39 46 47 45 49 49 49 50 50 50 50 56 56 56 54 55 58 60 57 59 59 59 59 57 57 58 60 57 56 57 56 57 58 58 58 57 56 55 55 56 57
39 36 36 31 43 42 35 45 48 50 51 47 40 45 50 51 53 52 55 56 55 56 56 56 56 56 56 54 55 53 54 55 55 55 57 58 57 57 55 56 55 54 54 56
41 37 37 31 35 25 44 56 55 49 47 49 51 51 50 51 55 56 56 51 53 55 55 54 53 54 53 53 52 53 54 54 54 55 57 58 58 57 57 56 54 54 55 55
48 40 34 27 27 39 45 47 46 43 43 48 48 51 54 54 52 52 56 57 52 52 53 54 57 56 52 51 51 50 50 52 52 54 55 56 57 56 56 54 53 54 54 54
50 45 36 30 27 26 40 49 51 50 34 50 52 50 49 50 41 47 52 55 54 53 53 54 55 56 52 48 47 47 46 47 47 50 54 55 56 56 55 55 53 53 53 54
37 37 33 33 30 35 47 52 52 35 36 47 49 49 48 44 45 49 53 52 53 53 54 55 54 45 45 47 48 45 46 44 46 50 50 51 52 53 54 54 54 54 52 53
35 34 32 34 30 28 51 50 41 45 49 50 50 50 47 47 49 50 52 52 52 52 53 51 50 49 47 48 46 44 42 45 46 44 46 48 50 51 53 52 52 53 53 52
34 38 36 37 36 48 51 46 50 50 48 51 49 53 49 47 48 50 51 51 52 51 51 51 48 45 46 45 44 40 40 42 43 43 43 46 47 49 50 49 49 49 50 51
44 49 40 42 48 47 49 50 51 54 54 53 52 50 49 46 49 50 50 50 50 51 48 47 45 43 41 42 41 39 39 40 40 39 40 42 43 45 47 48 48 48 49 49
43 47 42 43 48 48 49 49 51 53 54 54 53 51 49 49 49 49 48 49 48 46 46 45 41 39 38 38 37 38 39 39 37 37 39 40 42 43 44 46 46 47 50 50
47 43 36 35 44 43 46 51 56 52 51 51 50 49 50 50 49 48 48 45 44 43 43 41 39 37 36 36 35 37 39 39 37 36 37 38 38 39 39 40 41 44 43 44
MSLP
1006.13 1006.83 1007.01 1006.90 1006.60 1006.45 1006.07 1005.67 1005.30 1004.33 1003.07 1003.21 1002.62 1002.59 1002.58 1002.34 1002.52 1002.89 1002.86 1003.17 1003.12 1003.30 1003.23 1003.07 1003.31 1003.30 1004.14 1004.65 1005.02 1005.44 1005.71 1005.96 1006.97 1007.81 1008.00 1008.14 1008.16 1007.95 1007.58 1007.37 1007.08 1007.07 1007.30 1007.95
1006.58 1006.46 1006.24 1005.85 1005.52 1005.47 1005.37 1005.15 1004.76 1003.86 1003.17 1003.32 1003.49 1003.56 1002.87 1002.61 1002.30 1002.33 1002.75 1003.10 1002.95 1003.01 1002.95 1002.81 1003.10 1003.40 1003.94 1004.27 1004.52 1004.98 1005.39 1005.85 1006.51 1007.53 1007.87 1008.10 1008.05 1007.62 1007.31 1006.97 1006.84 1006.67 1007.49 1007.29
1006.11 1005.46 1005.13 1004.96 1004.79 1004.75 1004.59 1004.74 1004.47 1004.13 1003.78 1003.71 1004.15 1003.68 1003.22 1002.38 1002.01 1002.10 1001.97 1002.00 1002.32 1002.58 1002.88 1002.73 1002.99 1003.01 1003.60 1004.52 1004.99 1005.32 1005.67 1005.92 1006.27 1006.62 1007.08 1007.66 1007.79 1007.56 1007.34 1006.81 1006.87 1006.49 1007.05 1007.47
1005.49 1004.77 1004.48 1004.17 1004.04 1004.03 1004.30 1004.33 1004.34 1004.65 1005.02 1005.20 1004.70 1004.27 1003.99 1003.12 1002.45 1001.97 1001.62 1001.65 1001.50 1001.72 1001.95 1002.41 1003.37 1004.04 1004.35 1004.97 1005.19 1005.69 1006.05 1006.20 1006.06 1006.54 1007.26 1007.63 1008.02 1007.92 1007.27 1007.09 1006.82 1006.50 1006.37 1006.79
1004.95 1004.55 1004.45 1004.11 1003.64 1003.32 1003.83 1004.16 1004.69 1005.13 1005.59 1005.86 1005.85 1005.50 1004.32 1003.32 1002.78 1001.82 1001.03 1000.43 1000.50 1000.83 1001.54 1002.67 1003.41 1003.77 1004.22 1004.68 1005.33 1005.67 1005.99 1006.35 1006.52 1006.75 1007.14 1007.62 1007.84 1007.63 1007.07 1006.70 1006.58 1006.21 1006.66 1006.81
1005.14 1004.58 1004.51 1003.93 1003.61 1003.51 1003.81 1004.45 1005.17 1005.84 1006.55 1006.67 1006.51 1005.77 1004.91 1003.72 1002.52 1001.98 1001.15 999.64 999.73 1001.12 1002.15 1002.88 1003.42 1003.91 1004.61 1004.84 1005.30 1005.64 1006.03 1006.40 1006.51 1006.80 1007.21 1007.52 1007.67 1007.56 1007.23 1006.56 1006.59 1006.17 1005.82 1006.20
1005.62 1004.99 1004.49 1004.14 1004.11 1003.93 1004.39 1005.46 1006.95 1007.70 1007.98 1007.43 1006.78 1005.85 1004.69 1003.40 1002.31 1001.76 1001.54 1001.17 1001.12 1001.85 1002.65 1003.44 1004.03 1004.65 1004.79 1005.22 1005.49 1005.68 1005.99 1006.53 1006.81 1007.09 1007.33 1007.56 1007.61 1007.48 1007.26 1006.84 1006.52 1006.16 1005.53 1005.23
1006.10 1005.46 1004.68 1004.61 1005.31 1005.71 1005.80 1006.54 1007.94 1008.57 1009.18 1008.77 1007.72 1006.17 1004.29 1003.39 1002.81 1002.04 1001.59 1001.57 1002.39 1003.13 1003.58 1004.05 1004.48 1004.70 1005.05 1005.39 1005.68 1005.88 1006.23 1006.49 1006.65 1006.89 1007.23 1007.26 1007.32 1007.45 1007.27 1006.89 1006.49 1005.94 1005.54 1005.24
1006.64 1006.21 1005.53 1005.73 1005.83 1006.43 1006.80 1007.67 1008.63 1009.38 1010.05 1009.87 1008.55 1006.40 1004.59 1004.15 1003.62 1003.04 1002.89 1002.93 1004.04 1003.82 1004.40 1004.66 1004.85 1005.01 1005.28 1005.58 1005.78 1005.81 1005.94 1006.10 1006.34 1006.56 1006.73 1006.96 1007.11 1007.24 1007.26 1006.92 1006.66 1005.92 1005.06 1004.61
1007.51 1007.65 1007.18 1006.93 1006.94 1006.87 1007.44 1008.24 1009.51 1010.95 1011.78 1010.79 1008.64 1007.02 1005.63 1005.01 1004.87 1004.58 1004.28 1004.86 1004.87 1004.90 1005.11 1005.16 1005.35 1005.38 1005.53 1005.87 1005.88 1005.95 1005.99 1005.98 1006.06 1006.21 1006.39 1006.59 1006.69 1006.73 1006.72 1006.60 1006.56 1006.20 1005.70 1004.86
1008.28 1008.79 1008.80 1008.60 1008.13 1008.08 1008.35 1008.90 1009.72 1010.90 1011.70 1011.28 1009.60 1007.52 1005.95 1005.70 1005.76 1005.79 1005.68 1005.26 1005.31 1005.62 1005.55 1005.52 1005.54 1005.52 1005.68 1005.62 1005.65 1005.81 1005.75 1005.80 1005.93 1006.00 1006.14 1006.22 1006.37 1006.23 1006.02 1006.28 1006.24 1005.97 1005.67 1005.37
1009.37 1009.95 1010.20 1009.84 1009.09 1008.65 1008.91 1009.63 1010.59 1011.85 1011.97 1011.27 1010.07 1007.58 1006.35 1006.07 1006.01 1006.22 1006.13 1005.93 1005.60 1005.58 1005.51 1005.62 1005.53 1005.47 1005.49 1005.58 1005.59 1005.48 1005.42 1005.54 1005.67 1005.78 1005.83 1005.85 1006.01 1006.07 1006.07 1006.11 1005.86 1005.53 1005.28 1005.11
1010.87 1011.01 1011.41 1010.67 1009.76 1009.61 1009.83 1010.39 1011.19 1011.91 1012.46 1011.60 1010.72 1008.52 1007.11 1006.71 1006.23 1006.37 1006.31 1005.41 1005.55 1005.60 1005.56 1005.66 1005.60 1005.57 1005.32 1005.36 1005.43 1005.43 1005.31 1005.25 1005.25 1005.35 1005.41 1005.43 1005.36 1005.49 1005.57 1005.62 1005.38 1005.22 1005.03 1004.82
1011.17 1012.13 1012.53 1012.26 1011.56 1011.03 1010.62 1010.53 1010.77 1011.39 1012.08 1011.45 1010.28 1009.07 1007.88 1006.68 1006.30 1006.01 1005.63 1005.51 1005.65 1005.70 1005.84 1005.89 1005.80 1005.78 1005.63 1005.37 1005.15 1005.12 1004.85 1004.86 1004.80 1004.79 1004.84 1004.94 1004.96 1004.89 1004.75 1004.62 1004.67 1004.75 1004.67 1004.52
1011.75 1012.82 1012.96 1012.71 1012.01 1011.21 1010.42 1010.05 1009.99 1010.18 1010.12 1010.22 1008.56 1008.26 1007.00 1006.07 1005.85 1005.93 1005.86 1005.65 1005.87 1006.06 1005.97 1005.91 1005.90 1006.08 1006.22 1006.13 1005.92 1005.79 1005.58 1005.35 1005.17 1005.11 1004.86 1004.74 1004.47 1004.15 1003.97 1003.85 1003.84 1003.90 1003.95 1003.89
1011.90 1012.98 1013.20 1012.91 1012.08 1011.11 1009.93 1009.07 1008.92 1008.71 1008.58 1008.24 1007.52 1007.00 1006.62 1006.42 1006.02 1006.28 1006.41 1006.36 1006.39 1006.96 1006.76 1006.76 1006.94 1007.05 1006.93 1006.70 1006.56 1006.34 1005.94 1005.63 1005.38 1004.98 1004.58 1004.29 1004.14 1004.05 1003.79 1003.61 1003.57 1003.65 1003.68 1003.49
1012.36 1013.30 1013.68 1013.05 1012.18 1011.32 1009.71 1007.95 1007.71 1007.52 1007.69 1007.74 1007.71 1007.86 1007.29 1006.99 1006.85 1006.68 1006.60 1006.79 1007.14 1007.16 1007.07 1007.00 1007.06 1007.11 1006.86 1006.57 1006.32 1006.18 1005.92 1005.57 1005.28 1004.91 1004.53 1004.20 1003.78 1003.54 1003.36 1003.15 1003.06 1003.07 1003.03 1003.07
1011.97 1013.14 1013.91 1013.64 1012.87 1011.31 1008.61 1007.69 1007.30 1007.83 1008.43 1008.54 1008.14 1007.89 1007.75 1008.17 1007.59 1007.10 1007.30 1007.55 1007.51 1007.36 1007.05 1006.93 1006.85 1006.54 1006.26 1005.95 1005.74 1005.42 1005.15 1005.05 1004.79 1004.40 1003.85 1003.43 1003.12 1002.64 1002.48 1002.54 1002.34 1002.36 1002.50 1002.42
1011.10 1012.61 1014.17 1014.12 1012.96 1010.97 1009.05 1008.45 1008.12 1008.26 1008.99 1009.39 1008.65 1008.57 1008.15 1008.05 1007.67 1007.39 1007.11 1007.21 1007.26 1006.95 1006.72 1006.51 1006.28 1006.05 1005.85 1005.67 1005.44 1005.38 1005.19 1004.77 1004.21 1003.82 1003.18 1002.47 1002.27 1001.85 1001.45 1001.42 1001.40 1001.44 1001.54 1001.61
1010.72 1011.91 1013.60 1013.75 1013.08 1011.36 1009.43 1008.98 1009.06 1008.49 1008.92 1008.84 1008.78 1008.56 1008.28 1008.03 1007.96 1007.45 1007.32 1007.08 1006.87 1006.91 1006.76 1006.60 1006.25 1005.87 1005.50 1005.61 1005.58 1005.53 1005.07 1004.66 1004.06 1003.40 1002.38 1001.79 1001.30 1000.86 1000.57 1000.52 1000.52 1000.57 1000.81 1000.73
1011.66 1012.47 1012.96 1013.11 1012.59 1011.17 1009.83 1009.29 1009.22 1009.61 1009.93 1008.95 1008.74 1008.73 1008.59 1008.58 1008.52 1007.66 1007.16 1007.04 1006.92 1006.67 1006.35 1005.98 1005.56 1005.73 1005.68 1005.48 1005.30 1004.87 1004.25 1003.55 1003.23 1002.37 1001.78 1001.28 1000.84 1000.10 999.79 999.73 999.79 999.75 999.83 999.81
1011.93 1012.36 1012.57 1012.46 1011.92 1010.80 1009.59 1009.32 1009.59 1009.56 1009.02 1008.80 1008.66 1008.51 1008.54 1008.37 1008.04 1007.72 1007.39 1007.07 1006.73 1006.39 1005.95 1005.85 1005.60 1005.44 1005.32 1005.15 1004.89 1003.99 1003.46 1003.04 1002.65 1002.25 1001.28 1000.35 999.86 999.65 999.35 999.05 999.02 999.00 998.87 998.59
1011.73 1011.89 1011.90 1011.85 1010.69 1009.69 1009.06 1009.19 1009.09 1008.97 1008.95 1008.66 1008.53 1008.45 1008.34 1008.20 1008.04 1007.72 1007.21 1006.81 1006.50 1006.18 1005.96 1005.67 1005.50 1005.09 1004.78 1004.60 1004.37 1003.46 1003.00 1002.63 1001.92 1001.21 1000.44 999.70 999.21 998.82 998.60 998.45 998.31 998.19 997.98 997.62
1011.22 1011.19 1011.36 1010.93 1009.69 1009.71 1009.16 1009.20 1009.27 1008.94 1008.65 1008.43 1008.25 1008.13 1008.15 1008.26 1007.94 1007.48 1007.09 1006.84 1006.56 1006.01 1005.83 1005.71 1005.34 1004.90 1004.22 1004.12 1003.76 1003.15 1002.38 1001.77 1001.10 1000.30 999.84 999.26 998.64 998.08 997.71 997.46 997.24 997.02 996.82 996.71
1011.34 1011.06 1011.04 1010.54 1009.91 1009.73 1009.30 1009.11 1008.94 1008.72 1008.37 1008.23 1008.11 1008.17 1008.16 1007.95 1007.68 1007.45 1007.26 1006.84 1006.41 1006.32 1005.97 1005.68 1005.31 1004.61 1003.81 1003.53 1002.98 1002.39 1001.62 1000.95 1000.16 999.56 998.91 998.35 997.77 997.26 996.82 996.47 996.36 996.07 995.73 995.74
1010.39 1010.12 1010.57 1010.38 1010.28 1010.46 1009.53 1008.74 1008.50 1008.41 1008.35 1008.15 1008.06 1007.97 1007.90 1007.87 1007.57 1007.39 1007.10 1006.97 1006.81 1006.24 1005.87 1005.45 1005.13 1004.36 1003.60 1003.02 1002.10 1001.38 1000.73 1000.08 999.37 998.49 997.83 997.30 996.92 996.63 996.28 995.80 995.47 995.26 995.09 995.05
Wind_Speed
6 3 6 12 12 13 12 12 12 10 8 4 5 7 9 9 5 7 8 9 10 10 10 7 8 9 9 8 9 8 7 2 5 2 3 3 5 5 7 6 9 10 12 14
5 7 11 12 13 13 15 15 14 7 9 7 8 8 8 8 6 6 9 10 10 9 9 9 9 8 10 10 10 8 7 5 4 4 3 2 3 5 6 8 10 12 8 13
8 10 15 17 14 12 8 6 7 5 10 10 8 9 8 5 4 8 10 9 8 12 11 9 9 9 6 6 8 7 6 7 4 4 1 0 2 3 2 4 6 8 5 1
9 12 15 13 7 7 6 10 12 10 6 9 3 13 7 8 10 14 16 13 11 10 9 7 9 9 10 8 8 9 8 3 4 4 3 2 1 4 5 5 5 5 6 6
7 6 9 12 11 7 6 7 9 8 7 2 7 4 6 6 12 14 11 21 17 14 8 14 11 9 9 9 8 8 9 9 8 5 4 1 3 3 4 7 9 8 4 13
8 9 5 7 14 9 5 5 8 6 2 8 6 8 8 13 13 8 5 5 12 16 14 11 9 9 8 8 8 8 9 6 6 6 5 3 5 6 6 9 8 8 8 4
7 9 8 7 7 9 5 4 4 5 4 8 9 11 9 5 7 3 7 10 11 12 11 9 10 8 7 7 6 7 8 5 6 7 7 6 6 5 6 7 8 10 9 8
3 3 4 6 6 6 7 0 4 5 4 5 10 5 6 6 9 8 8 10 10 10 9 9 8 6 6 7 6 6 6 3 4 4 4 5 6 4 5 6 6 8 6 8
1 4 12 9 10 4 6 5 2 3 5 3 5 10 11 6 9 10 15 14 10 10 9 8 7 7 5 3 5 6 5 4 5 3 1 3 3 5 5 7 8 8 9 9
5 4 4 6 10 7 3 6 5 3 1 6 6 7 2 8 8 12 13 11 11 8 8 7 6 6 5 6 4 4 5 5 6 6 5 5 4 3 5 4 6 9 11 9
2 2 4 7 3 6 5 4 3 5 6 5 2 5 5 2 9 11 12 13 7 5 5 4 4 3 2 2 3 3 3 4 4 5 4 5 6 6 4 4 5 6 7 9
5 3 3 6 13 15 10 6 4 3 3 5 3 11 10 6 7 6 8 10 7 8 6 6 5 2 2 4 5 5 3 2 3 2 2 2 4 6 5 6 6 6 7 6
4 3 3 8 6 6 5 1 4 3 1 4 6 4 8 3 3 2 8 9 4 4 8 8 5 5 5 5 5 4 4 4 4 3 3 4 3 3 5 7 7 6 7 10
6 1 5 6 7 8 11 10 11 8 4 4 10 11 16 15 7 11 8 8 1 5 6 6 4 5 6 7 6 7 6 6 5 4 4 5 6 6 6 6 7 7 7 9
7 4 5 8 12 14 15 16 16 16 13 11 17 16 17 14 5 4 3 6 5 6 7 7 6 8 8 7 7 7 5 5 3 5 6 7 7 7 7 7 7 7 6 8
3 3 4 10 13 14 18 17 15 18 18 20 18 14 9 5 8 10 7 5 5 8 10 11 11 11 9 8 9 10 7 6 7 7 7 7 6 6 6 5 5 6 7 8
6 3 1 5 8 14 12 14 13 7 12 2 4 3 10 9 8 5 7 8 7 8 7 6 7 8 9 8 6 6 6 6 7 7 9 8 7 8 7 7 6 6 7 8
7 5 2 5 7 5 7 10 2 6 12 13 4 5 6 4 7 7 7 6 7 7 5 7 7 8 8 5 7 8 8 8 9 12 14 14 13 13 13 11 9 9 10 9
9 6 2 3 3 11 12 5 5 3 3 2 8 7 7 8 6 5 11 10 6 7 6 7 10 11 7 6 5 6 8 10 12 17 18 15 14 16 15 14 12 10 11 12
11 8 7 3 3 4 2 8 9 3 2 5 5 6 8 9 7 7 8 8 9 8 7 10 12 15 9 5 6 10 13 16 19 22 20 16 18 17 16 13 11 10 11 14
2 3 8 6 4 7 6 8 5 0 1 6 5 5 7 4 4 8 9 9 8 10 13 15 13 5 5 7 12 17 19 18 20 16 15 18 16 14 13 13 12 12 13 15
3 2 4 5 5 7 3 5 0 3 5 5 5 6 6 6 8 8 11 13 13 13 13 8 12 11 8 14 16 20 19 18 17 19 20 17 16 13 13 14 13 14 15 15
2 5 2 3 4 6 5 3 3 4 5 4 7 4 6 7 7 11 13 12 13 11 13 12 13 14 17 17 18 17 19 18 18 17 18 14 13 13 12 13 14 13 14 12
5 5 4 5 5 7 7 7 6 9 5 7 5 5 7 7 11 13 11 12 14 14 14 13 16 18 21 17 17 16 17 17 17 18 16 15 15 15 15 11 11 12 11 11
5 1 5 11 3 4 5 2 5 9 8 7 6 6 7 9 11 8 11 15 12 13 15 15 15 20 21 17 17 16 17 16 16 15 14 14 13 13 12 11 10 11 13 11
5 3 3 4 3 7 11 4 5 7 5 6 6 7 7 7 10 10 14 9 12 17 17 14 19 19 19 19 18 17 16 15 15 14 12 11 10 9 10 10 10 15 18 12
Wind_Direction
209 169 226 225 227 240 265 272 277 274 279 19 262 193 219 227 239 234 212 204 210 224 230 223 225 205 139 136 125 137 129 104 106 44 224 229 230 248 239 237 230 203 198 205
268 223 235 254 255 240 245 260 272 290 326 347 313 271 245 230 234 234 213 229 223 221 230 217 198 193 162 163 159 146 133 136 153 143 200 218 247 246 221 236 236 234 203 207
197 233 226 235 245 263 286 283 292 285 314 312 324 305 312 278 271 268 257 236 209 204 211 219 214 204 143 112 117 126 160 178 154 205 136 355 278 282 303 261 251 242 228 5
230 241 251 265 247 222 248 280 295 283 258 276 302 285 299 283 257 256 249 235 232 209 194 183 99 84 94 104 83 72 59 92 153 118 94 63 244 294 294 277 278 269 231 167
262 315 344 323 279 232 246 258 260 267 276 308 303 317 276 267 280 273 246 230 220 210 163 111 114 112 104 93 107 88 72 62 58 68 87 68 310 274 280 305 315 315 205 201
295 321 307 305 320 322 16 1 347 342 331 268 238 248 270 258 259 310 344 313 213 118 111 110 113 102 92 84 91 88 85 62 54 57 27 347 280 282 299 304 307 302 303 239
315 278 285 297 314 328 341 15 320 321 301 248 238 265 227 268 325 324 29 59 80 95 95 91 89 91 93 89 94 95 83 64 61 43 21 349 298 275 282 290 300 301 300 299
284 302 212 343 46 336 330 37 182 254 257 298 331 260 242 347 11 10 47 110 96 73 86 94 94 85 96 96 108 103 110 97 97 69 14 353 322 294 285 274 279 287 285 296
328 281 344 14 318 359 340 356 355 11 23 296 228 282 276 17 1 18 42 56 59 83 81 77 68 84 73 61 139 143 166 203 160 155 357 347 348 337 311 311 304 285 287 293
11 342 336 346 346 334 334 316 12 43 319 268 240 251 217 43 3 6 8 64 47 45 47 34 26 21 45 49 30 352 295 218 194 191 207 215 249 278 295 312 329 326 310 300
11 142 306 342 255 258 288 269 206 179 179 218 246 251 125 113 41 20 23 15 3 53 37 1 347 9 97 43 344 294 328 238 205 201 224 231 254 254 280 293 291 299 324 334
32 132 278 256 283 286 282 306 45 187 254 240 234 254 311 95 57 33 348 330 323 333 338 322 297 271 307 272 257 241 231 167 233 212 189 216 259 264 290 292 286 296 298 308
338 337 343 325 319 52 58 30 143 91 244 233 269 278 1 337 135 280 272 276 254 326 321 305 317 296 273 301 300 293 259 238 230 221 260 279 264 253 266 276 283 293 298 296
91 233 201 210 270 289 295 289 286 161 216 265 239 270 278 285 211 237 255 264 257 303 290 290 345 338 308 287 271 269 275 281 255 232 229 237 248 253 251 258 270 269 272 286
130 223 259 270 282 287 283 275 269 263 236 213 266 253 256 271 282 173 128 38 347 282 274 314 323 337 355 11 5 354 347 345 340 322 309 279 257 244 248 250 250 254 254 274
129 228 302 289 282 281 278 287 286 271 271 265 265 269 42 45 57 42 12 347 316 27 16 3 352 348 345 343 335 329 324 335 331 309 287 282 294 297 288 292 290 293 290 277
130 156 356 260 327 318 293 250 256 278 336 356 40 8 33 12 33 9 345 16 27 3 354 341 329 313 300 290 292 306 302 304 301 295 295 299 298 292 276 265 268 282 289 297
176 167 174 276 301 245 242 333 66 91 56 348 19 96 103 306 322 339 54 31 343 323 310 300 286 285 275 267 284 283 288 284 280 280 276 273 271 265 268 269 273 280 285 288
176 146 177 236 229 289 295 20 11 18 106 294 0 348 356 344 321 279 18 355 322 300 286 289 296 291 286 290 314 333 319 308 303 295 286 280 272 270 267 264 264 269 275 275
158 149 166 204 225 262 107 24 25 5 235 358 0 338 344 342 339 315 335 325 322 336 328 321 307 295 291 346 358 323 305 298 292 284 277 283 272 263 259 260 262 266 270 269
125 187 212 218 239 274 26 345 86 311 274 289 324 341 308 303 246 293 331 338 322 319 314 302 306 344 323 313 309 298 296 288 287 282 291 284 280 274 260 259 260 261 262 264
186 225 201 223 219 248 14 348 353 230 294 311 331 305 321 320 319 326 323 317 312 309 315 334 323 310 307 309 307 293 289 292 290 292 278 271 269 265 264 258 261 261 259 254
226 196 273 214 226 219 243 199 286 269 272 322 299 320 332 329 327 321 310 313 313 319 317 318 318 313 308 310 300 294 292 290 286 282 284 280 283 266 259 263 264 261 252 245
343 57 268 347 305 12 16 56 11 320 305 313 327 342 354 334 321 310 313 322 320 318 326 324 315 308 303 304 299 288 289 286 284 281 275 273 267 265 258 252 249 246 241 239
210 267 280 290 317 333 85 69 302 295 310 305 351 5 335 310 309 310 325 318 327 330 321 317 316 307 303 305 301 294 291 289 285 281 276 271 265 260 262 251 253 255 243 237
240 216 196 238 325 284 276 267 298 280 292 354 1 331 319 327 315 328 319 341 329 321 322 321 312 306 309 306 302 301 297 290 283 279 274 267 265 261 257 258 259 253 246 235